Ottumwa, IA

1:49 AM CDT on May 27, 2017 (GMT -0500)
Ottumwa Industrial

Weather History for KOTM - March, 2014

Change the Weather History Date:

Sunday, March 9, 2014

  Actual Average Record
Temperature  
Mean Temperature 37 °F 36 °F  
Max Temperature 52 °F 46 °F 71 °F (1990)
Min Temperature 22 °F 26 °F -1 °F (1912)
Degree Days  
Heating Degree Days 28 29  
Month to date heating degree days 394 278  
Since 1 July heating degree days 5906 5163  
Cooling Degree Days 0 0  
Month to date cooling degree days 0 0  
Year to date cooling degree days 0 0  
Moisture  
Dew Point 28 °F    
Average Humidity 67    
Maximum Humidity 88    
Minimum Humidity 46    
Precipitation  
Precipitation 0.00 in 0.06 in 1.26 in (2013)
Month to date precipitation T 0.60  
Year to date precipitation 1.33 2.78  
Sea Level Pressure  
Sea Level Pressure 30.07 in    
Wind  
Wind Speed 13 mph (SW)    
Max Wind Speed 24 mph    
Max Gust Speed 30 mph    
Visibility 9 miles    
Events      
T = Trace of Precipitation, MM = Missing Value Source: NWS Daily Summary

Daily Weather History Graph

Daily Weather History Graph

Search for Another Location

Airport or City:

Trip Planner

Search our weather history database for the weather conditions in past years. The results will help you decide how hot, cold, wet, or windy it might be!

Date:

Astronomy

Mar. 09, 2014 Rise Set
Actual Time 7:31 AM CDT 7:09 PM CDT
Civil Twilight 7:03 AM CDT 7:37 PM CDT
Nautical Twilight 6:32 AM CDT 8:09 PM CDT
Astronomical Twilight 5:59 AM CDT 8:41 PM CDT
Moon 1:00 PM CDT (3/9) 3:59 AM CDT (3/9)
Length of Visible Light 12h 33m
Length of Day
11h 38m
First Quarter, 61% of the Moon is Illuminated
Mar 9
First Quarter
Mar 16
Full
Mar 23
Last Quarter
Mar 30
New
Apr 7
First Quarter

Hourly Weather History & Observations

Time (CDT) Temp. Windchill Dew Point Humidity Pressure Visibility Wind Dir Wind Speed Gust Speed Precip Events Conditions
12:53 AM 24.1 °F 18.2 °F 21.9 °F 91% 30.32 in 7.0 mi West 4.6 mph - N/A   Clear
1:53 AM 24.1 °F 19.7 °F 21.9 °F 91% 30.30 in 6.0 mi WSW 3.5 mph - N/A   Clear
3:53 AM 24.1 °F 19.7 °F 21.9 °F 91% 30.29 in 5.0 mi SW 3.5 mph - N/A   Clear
4:53 AM 23.0 °F 17.0 °F 19.9 °F 88% 30.27 in 5.0 mi SSW 4.6 mph - N/A   Clear
5:53 AM 23.0 °F 14.7 °F 19.9 °F 88% 30.27 in 7.0 mi SSW 6.9 mph - N/A   Clear
6:53 AM 23.0 °F 15.8 °F 19.9 °F 88% 30.26 in 7.0 mi South 5.8 mph - N/A   Clear
7:53 AM 24.1 °F 14.4 °F 19.9 °F 84% 30.24 in 7.0 mi South 9.2 mph - N/A   Clear
8:53 AM 27.0 °F 17.3 °F 23.0 °F 85% 30.23 in 8.0 mi SSW 10.4 mph - N/A   Clear
9:53 AM 33.1 °F 23.4 °F 26.1 °F 75% 30.20 in 10.0 mi SSW 13.8 mph - N/A   Clear
10:53 AM 37.0 °F 27.7 °F 27.0 °F 67% 30.17 in 10.0 mi SW 16.1 mph - N/A   Clear
11:53 AM 41.0 °F 32.2 °F 27.0 °F 57% 30.13 in 10.0 mi SW 18.4 mph 28.8 mph N/A   Clear
12:53 PM 45.0 °F 37.6 °F 30.0 °F 56% 30.09 in 10.0 mi SSW 17.3 mph - N/A   Clear
1:53 PM 48.0 °F - 30.0 °F 50% 30.04 in 10.0 mi SSW 23.0 mph - N/A   Clear
2:53 PM 50.0 °F - 33.1 °F 52% 29.98 in 10.0 mi SSW 19.6 mph - N/A   Clear
3:53 PM 51.1 °F - 33.1 °F 50% 29.96 in 10.0 mi SSW 19.6 mph 26.5 mph N/A   Clear
4:53 PM 52.0 °F - 34.0 °F 50% 29.92 in 10.0 mi SW 16.1 mph 26.5 mph N/A   Clear
5:53 PM 51.1 °F - 34.0 °F 52% 29.90 in 10.0 mi SSW 20.7 mph 27.6 mph N/A   Clear
6:53 PM 46.9 °F - 34.0 °F 61% 29.90 in 10.0 mi SSW 12.7 mph - N/A   Clear
7:53 PM 44.1 °F 38.1 °F 33.1 °F 65% 29.88 in 10.0 mi SSW 11.5 mph - N/A   Clear
8:53 PM 44.1 °F 37.7 °F 33.1 °F 65% 29.87 in 10.0 mi SSW 12.7 mph - N/A   Clear
9:53 PM 46.0 °F 39.3 °F 32.0 °F 58% 29.86 in 10.0 mi SSW 16.1 mph - N/A   Clear
10:53 PM 48.0 °F - 30.9 °F 52% 29.85 in 10.0 mi SW 12.7 mph - N/A   Clear
11:53 PM 50.0 °F - 30.0 °F 46% 29.83 in 10.0 mi SW 16.1 mph 24.2 mph N/A   Clear
12:53 AM 48.9 °F - 30.9 °F 50% 29.82 in 10.0 mi WSW 17.3 mph - N/A   Clear